CW2927 Weather Reports


Display with metric or nautical units.
time (UTC)temp
F
wind
direction
speed
MPH
gust
MPH
rain 1hr
in
rain 24hr
in
rain mn
in
humidity
%
barometer
mb
20260906144704 63 7 2.0 3.0 0.00 0.11 0.00 77 1017.6
20260906144205 63 14 2.0 5.0 0.00 0.11 0.00 78 1017.6
20260906142705 62 357 2.0 3.0 0.00 0.11 0.00 79 1017.7
20260906142203 62 325 3.0 5.0 0.00 0.11 0.00 80 1017.8
20260906140704 61 309 2.0 5.0 0.00 0.11 0.00 82 1017.8
20260906134704 60 294 2.0 3.0 0.00 0.11 0.00 85 1017.8
20260906134204 59 287 2.0 6.0 0.00 0.11 0.00 86 1017.9
20260906132204 58 344 2.0 5.0 0.00 0.11 0.00 87 1017.8
20260906130703 57 24 2.0 3.0 0.00 0.11 0.00 90 1017.9
20260906130204 57 350 2.0 6.0 0.00 0.11 0.00 91 1018.0
20260906124704 56 50 3.0 5.0 0.00 0.11 0.00 91 1017.9
20260906122704 56 34 4.0 9.0 0.00 0.11 0.00 90 1017.9
20260906122204 55 64 2.0 8.0 0.00 0.11 0.00 90 1017.9
20260906120704 55 8 2.0 5.0 0.00 0.11 0.00 90 1017.7
20260906120204 55 8 3.0 6.0 0.00 0.11 0.00 90 1017.7
20260906114704 53 355 2.0 3.0 0.00 0.11 0.00 91 1017.6
20260906114204 53 13 2.0 6.0 0.00 0.11 0.00 92 1017.7
20260906112704 52 32 2.0 3.0 0.00 0.11 0.00 92 1017.4
20260906112204 52 5 2.0 3.0 0.00 0.11 0.00 92 1017.4
20260906110704 52 10 2.0 5.0 0.00 0.11 0.00 92 1017.3
20260906110204 52 11 2.0 3.0 0.00 0.11 0.00 92 1017.3
20260906104703 52 20 1.0 3.0 0.00 0.11 0.00 92 1017.1
20260906104204 52 20 2.0 3.0 0.00 0.11 0.00 92 1017.0
20260906102703 52 20 1.0 2.0 0.00 0.11 0.00 92 1016.8
20260906102203 52 20 2.0 3.0 0.00 0.11 0.00 92 1016.8
20260906100704 52 12 2.0 3.0 0.00 0.11 0.00 92 1016.7
20260906094703 52 19 1.0 3.0 0.00 0.11 0.00 91 1016.6
20260906094204 52 20 2.0 3.0 0.00 0.11 0.00 91 1016.6
20260906092704 53 28 2.0 3.0 0.00 0.11 0.00 91 1016.5
20260906092204 53 25 2.0 6.0 0.00 0.11 0.00 91 1016.4
20260906090703 52 46 2.0 5.0 0.00 0.11 0.00 91 1016.2
20260906090203 52 10 1.0 5.0 0.00 0.11 0.00 91 1016.2
20260906084204 53 50 2.0 7.0 0.00 0.11 0.00 90 1016.0
20260906082704 53 12 2.0 5.0 0.00 0.11 0.00 90 1016.0
20260906082204 53 12 3.0 7.0 0.00 0.11 0.00 89 1016.1
20260906080703 53 6 2.0 3.0 0.00 0.11 0.00 89 1016.0
20260906080204 53 0 4.0 7.0 0.00 0.11 0.00 89 1016.1
20260906074205 53 0 3.0 3.0 0.00 0.11 0.00 90 1016.1
20260906072706 53 28 2.0 3.0 0.00 0.11 0.00 90 1016.0
20260906072205 53 20 2.0 5.0 0.00 0.11 0.00 90 1015.9
20260906070205 53 11 3.0 5.0 0.00 0.11 0.00 91 1015.8
20260906064205 54 44 2.0 7.0 0.00 0.11 0.00 90 1015.7
20260906062705 54 37 2.0 3.0 0.00 0.11 0.00 90 1015.7
20260906062205 54 49 2.0 5.0 0.00 0.11 0.00 90 1015.7
20260906060705 54 44 2.0 7.0 0.00 0.11 0.00 91 1015.7
20260906060205 54 45 3.0 7.0 0.00 0.11 0.00 91 1015.6
20260906054706 54 36 3.0 5.0 0.00 0.11 0.00 91 1015.8
20260906054205 54 63 2.0 7.0 0.00 0.11 0.00 91 1015.8
20260906052705 54 47 2.0 7.0 0.00 0.11 0.00 90 1015.8
20260906052205 54 38 3.0 7.0 0.00 0.11 0.00 90 1015.8
20260906050705 55 53 2.0 5.0 0.00 0.11 0.00 90 1015.9
20260906050205 55 34 2.0 6.0 0.00 0.11 0.00 90 1015.8
20260906044705 55 38 2.0 5.0 0.00 0.11 0.00 90 1015.7
20260906044205 55 58 3.0 9.0 0.00 0.11 0.00 90 1015.7
20260906042705 55 49 3.0 7.0 0.00 0.11 0.00 89 1015.7
20260906040705 55 53 5.0 7.0 0.00 0.11 0.00 89 1015.6
20260906034205 55 63 5.0 12.0 0.00 0.11 0.11 89 1015.4
20260906032704 55 68 5.0 13.0 0.00 0.11 0.11 89 1015.4
20260906032205 55 51 5.0 9.0 0.00 0.11 0.11 89 1015.4
20260906030205 55 20 2.0 7.0 0.00 0.11 0.11 89 1015.4
20260906024705 55 52 3.0 8.0 0.00 0.11 0.11 90 1015.5
20260906022705 55 19 2.0 3.0 0.01 0.11 0.11 91 1015.7
20260906022205 55 19 2.0 3.0 0.01 0.11 0.11 91 1015.6
20260906020705 55 10 2.0 3.0 0.02 0.11 0.11 91 1015.6
20260906020205 55 7 2.0 3.0 0.03 0.11 0.11 91 1015.7
20260906014705 55 18 2.0 6.0 0.06 0.11 0.11 90 1015.8
20260906014205 55 40 3.0 8.0 0.08 0.11 0.11 90 1015.5
20260906012705 55 56 6.0 14.0 0.10 0.10 0.10 90 1015.1
20260906012204 55 68 5.0 14.0 0.10 0.10 0.10 90 1014.8
20260906010205 56 91 6.0 15.0 0.08 0.08 0.08 88 1015.3
20260906004206 57 76 3.0 8.0 0.03 0.03 0.03 88 1015.9
20260906002705 59 17 3.0 5.0 0.00 0.00 0.00 85 1016.0
20260906002205 59 14 3.0 9.0 0.00 0.00 0.00 83 1015.9
20260906000705 61 7 5.0 12.0 0.00 0.00 0.00 76 1015.6
20260906000205 62 17 4.0 9.0 0.00 0.00 0.00 74 1015.5
20260905234705 62 7 6.0 13.0 0.00 0.00 0.00 72 1015.4
20260905234205 62 50 3.0 13.0 0.00 0.00 0.00 71 1015.3
20260905232705 63 25 6.0 10.0 0.00 0.00 0.00 68 1015.0
20260905232205 63 29 5.0 12.0 0.00 0.00 0.00 68 1014.9
20260905230705 64 29 3.0 10.0 0.00 0.00 0.00 71 1014.4
20260905230205 64 39 6.0 15.0 0.00 0.00 0.00 70 1014.5
20260905224704 65 71 5.0 12.0 0.00 0.00 0.00 70 1014.4
20260905224204 65 66 4.0 10.0 0.00 0.00 0.00 70 1014.4
20260905222705 65 81 3.0 8.0 0.00 0.00 0.00 69 1014.3
20260905222204 65 43 5.0 10.0 0.00 0.00 0.00 68 1014.2
20260905220704 66 46 6.0 12.0 0.00 0.00 0.00 67 1014.0
20260905220205 66 44 4.0 12.0 0.00 0.00 0.00 67 1014.0
20260905214704 67 31 3.0 12.0 0.00 0.00 0.00 70 1013.6
20260905214204 67 50 6.0 15.0 0.00 0.00 0.00 70 1013.5
20260905212704 67 34 5.0 10.0 0.00 0.00 0.00 69 1013.3
20260905212205 68 57 3.0 12.0 0.00 0.00 0.00 69 1013.3
20260905210704 68 50 5.0 10.0 0.00 0.00 0.00 68 1013.0
20260905210204 68 46 5.0 13.0 0.00 0.00 0.00 69 1013.0
20260905204705 68 61 4.0 10.0 0.00 0.00 0.00 68 1013.0
20260905204205 69 61 9.0 15.0 0.00 0.00 0.00 66 1013.0
20260905202704 68 51 5.0 10.0 0.00 0.00 0.00 65 1012.8
20260905202204 68 60 4.0 12.0 0.00 0.00 0.00 66 1012.8
20260905200705 70 57 4.0 12.0 0.00 0.00 0.00 64 1012.7
20260905200204 70 18 4.0 12.0 0.00 0.00 0.00 63 1012.7
20260905194704 69 41 5.0 8.0 0.00 0.00 0.00 65 1012.6
20260905192705 70 58 6.0 12.0 0.00 0.00 0.00 63 1012.6
20260905192204 70 61 5.0 13.0 0.00 0.00 0.00 63 1012.7
20260905190705 69 58 5.0 10.0 0.00 0.00 0.00 65 1012.6
20260905190205 69 31 7.0 13.0 0.00 0.00 0.00 62 1012.7
20260905182206 68 11 4.0 12.0 0.00 0.00 0.00 72 1012.7
20260905180705 68 21 6.0 12.0 0.00 0.00 0.00 71 1012.8
20260905180204 68 72 3.0 13.0 0.00 0.00 0.00 72 1012.8
20260905174705 68 28 3.0 10.0 0.00 0.00 0.00 70 1012.8
20260905174205 68 26 6.0 12.0 0.00 0.00 0.00 73 1012.8
20260905172705 68 14 4.0 7.0 0.00 0.00 0.00 74 1012.7
20260905172204 67 37 5.0 12.0 0.00 0.00 0.00 76 1012.7
20260905170705 65 60 3.0 9.0 0.00 0.00 0.00 80 1012.9
20260905170204 64 39 4.0 13.0 0.00 0.00 0.00 80 1012.9
20260905164705 65 74 5.0 9.0 0.00 0.00 0.00 80 1013.0
20260905164204 64 20 4.0 9.0 0.00 0.00 0.00 80 1013.0
20260905162205 64 5 3.0 10.0 0.00 0.00 0.00 81 1013.0
20260905160704 64 54 2.0 6.0 0.00 0.00 0.00 82 1013.0
20260905160204 64 10 3.0 9.0 0.00 0.00 0.00 82 1013.0
20260905154704 64 66 3.0 9.0 0.00 0.00 0.00 81 1013.0
20260905154204 64 33 6.0 12.0 0.00 0.00 0.00 82 1012.9
20260905152704 64 59 4.0 13.0 0.00 0.00 0.00 83 1012.9
20260905152204 63 53 3.0 9.0 0.00 0.00 0.00 84 1012.9
20260905150704 63 75 3.0 8.0 0.00 0.00 0.00 84 1013.1
20260905150205 63 59 5.0 12.0 0.00 0.00 0.00 84 1013.0